Find Starlink 32360

NORAD ID: 61007 Int'l Des: 2024-158 Owner: SPXS Country: US Constellation: starlink operational
LEOCIRCULAR

Live-Position

3D-Globus wird geladen...

Über Starlink 32360

Beschreibung wird geladen...

Nächste Überflüge

Passes for default location (London). Set your location on the main map for personalized predictions.

Höhenverlauf

Loading altitude history...

Zweizeiliger Elementsatz

1 61007U 24158T 26127.29174003 .00000347 00000-0 23859-4 0 9993
2 61007 53.1597 138.0247 0001208 85.2146 274.8992 15.30189516 94764
Epoch: 7. Mai 2026 • Age: 7 hours

Aktueller Status

Höhe 475.4 km
Geschwindigkeit 7.63 km/s
Subsatellitenpunkt 20.42°N, 133.99°W
Startdatum 5. Sept. 2024
Alter 1.6 years
Typ internet

Technische Details

Klassifizierung Payload
Masse 730.00 kg
Trockenmasse 700.00 kg
Gesamtmasse 730.00 kg
Länge 0.30 m
Durchmesser 4.10 m
Spannweite 29.00 m
Form Box + pan
Hersteller SPXS
Bus-Typ Starlink V2M
Phasenstatus In Orbit
Besitzer/Staat SPXS/US

Most Searched